This is the latest recevied weather packets stored in our database for station/object KG2V. If no packets are shown the sender has not sent any weather packets the latest 10 day(s).
| Time | Temp. | Humidity | Pressure | Rain* | Wind** | Luminosity | Snow |
|---|---|---|---|---|---|---|---|
| 1777864625 | 11.67° C | 54% | 1004.7 hPa | 0 mm | - | 0 W/m² | - |
| 1777864323 | 12.22° C | 55% | 1004.8 hPa | 0 mm | - | 0 W/m² | - |
| 1777864018 | 12.22° C | 54% | 1004.8 hPa | 0 mm | - | 0 W/m² | - |
| 1777863715 | 12.22° C | 55% | 1004.8 hPa | 0 mm | - | 0 W/m² | - |
| 1777863412 | 12.22° C | 54% | 1004.7 hPa | 0 mm | - | 0 W/m² | - |
| 1777863108 | 12.22° C | 55% | 1004.7 hPa | 0 mm | - | 0 W/m² | - |
| 1777862806 | 12.22° C | 54% | 1004.6 hPa | 0 mm | - | 0 W/m² | - |
| 1777862502 | 12.22° C | 54% | 1004.8 hPa | 0 mm | - | 0 W/m² | - |
| 1777862199 | 11.67° C | 54% | 1004.8 hPa | 0 mm | - | 0 W/m² | - |
| 1777861896 | 11.67° C | 54% | 1005.1 hPa | 0 mm | - | 0 W/m² | - |
| 1777861592 | 11.67° C | 55% | 1004.8 hPa | 0 mm | - | 0 W/m² | - |
| 1777861288 | 11.67° C | 56% | 1004.9 hPa | 0 mm | - | 0 W/m² | - |
| 1777860986 | 11.67° C | 57% | 1005 hPa | 0 mm | - | 0 W/m² | - |
| 1777860682 | 11.67° C | 56% | 1005 hPa | 0 mm | - | 0 W/m² | - |
| 1777860380 | 11.67° C | 55% | 1004.9 hPa | 0 mm | - | 0 W/m² | - |
| 1777860075 | 11.67° C | 56% | 1005 hPa | 0 mm | - | 0 W/m² | - |
| 1777859772 | 11.67° C | 56% | 1005.1 hPa | 0 mm | - | 0 W/m² | - |
| 1777859469 | 11.67° C | 56% | 1005.1 hPa | 0 mm | - | 0 W/m² | - |
| 1777859164 | 11.67° C | 55% | 1004.9 hPa | 0 mm | - | 0 W/m² | - |
| 1777858862 | 11.67° C | 56% | 1005.1 hPa | 0 mm | - | 0 W/m² | - |
| 1777858559 | 11.67° C | 60% | 1005.2 hPa | 0 mm | - | 0 W/m² | - |
| 1777858256 | 11.67° C | 57% | 1005.1 hPa | 0 mm | - | 0 W/m² | - |
| 1777857953 | 11.67° C | 59% | 1004.9 hPa | 0 mm | - | 0 W/m² | - |
| 1777857651 | 11.67° C | 60% | 1005.1 hPa | 0 mm | - | 0 W/m² | - |
| 1777857348 | 11.11° C | 62% | 1005.3 hPa | 0 mm | - | 0 W/m² | - |
* Rain latest hour (hover to see other rain measurements)
** Current wind speed in m/s (hover to see current wind gust speed)